Orlando, FL

5:12 AM EST on December 13, 2017 (GMT -0500)
Executive

Weather History for KORL - February, 2013

Change the Weather History Date:

Sunday, February 24, 2013

  Actual Average Record
Temperature  
Mean Temperature 70 °F -  
Max Temperature 75 °F 72 °F 88 °F (2012)
Min Temperature 64 °F 54 °F 45 °F (1999)
Cooling Degree Days 6    
Growing Degree Days 20 (Base 50)    
Moisture  
Dew Point 67 °F    
Average Humidity 89    
Maximum Humidity 97    
Minimum Humidity 78    
Precipitation  
Precipitation 0.42 in - - ()
Sea Level Pressure  
Sea Level Pressure 29.96 in    
Wind  
Wind Speed 7 mph (WNW)    
Max Wind Speed 12 mph    
Max Gust Speed -    
Visibility 8 miles    
Events Rain    
Averages and records for this station are not official NWS values.
T = Trace of Precipitation, MM = Missing Value Source: NWS Daily Summary

Daily Weather History Graph

Daily Weather History Graph

Search for Another Location

Airport or City:

Trip Planner

Search our weather history database for the weather conditions in past years. The results will help you decide how hot, cold, wet, or windy it might be!

Date:

Astronomy

Feb. 24, 2013 Rise Set
Actual Time 6:55 AM EST 6:22 PM EST
Civil Twilight 6:31 AM EST 6:46 PM EST
Nautical Twilight 6:03 AM EST 7:13 PM EST
Astronomical Twilight 5:36 AM EST 7:40 PM EST
Moon 5:31 PM EST (2/24) 5:49 AM EST (2/24)
Length of Visible Light 12h 14m
Length of Day
11h 27m
Waxing Gibbous, 99% of the Moon is Illuminated
Feb 24
Waxing Gibbous
Feb 25
Full
Mar 4
Last Quarter
Mar 11
New
Mar 19
First Quarter

Hourly Weather History & Observations

Time (EST) Temp. Dew Point Humidity Pressure Visibility Wind Dir Wind Speed Gust Speed Precip Events Conditions
12:53 AM 71.1 °F 69.1 °F 93% 29.94 in 5.0 mi SSW 8.1 mph - N/A   Clear
1:53 AM 70.0 °F 68.0 °F 93% 29.93 in 6.0 mi SW 5.8 mph - N/A   Clear
2:53 AM 69.1 °F 66.9 °F 93% 29.91 in 5.0 mi SSW 6.9 mph - N/A   Clear
3:53 AM 68.0 °F 66.0 °F 93% 29.90 in 4.0 mi SSW 10.4 mph - N/A   Partly Cloudy
4:53 AM 68.0 °F 66.0 °F 93% 29.91 in 4.0 mi SW 8.1 mph - N/A   Mostly Cloudy
5:53 AM 69.1 °F 66.0 °F 90% 29.94 in 4.0 mi West 8.1 mph - N/A   Overcast
7:53 AM 70.0 °F 68.0 °F 93% 29.96 in 4.0 mi SW 8.1 mph - N/A   Overcast
8:53 AM 71.1 °F 69.1 °F 93% 29.98 in 4.0 mi SW 8.1 mph - N/A   Overcast
9:53 AM 73.0 °F 69.1 °F 87% 29.98 in 8.0 mi SSW 5.8 mph - N/A   Mostly Cloudy
10:53 AM 75.0 °F 69.1 °F 82% 29.98 in 9.0 mi SW 6.9 mph - N/A   Overcast
11:53 AM 75.0 °F 69.1 °F 82% 29.98 in 8.0 mi WNW 9.2 mph - 0.00 in Rain Light Rain
12:11 PM 71.6 °F 69.8 °F 94% 29.97 in 1.8 mi NW 4.6 mph - 0.08 in Rain Heavy Rain
12:22 PM 71.6 °F 69.8 °F 94% 29.97 in 0.8 mi NW 10.4 mph - 0.26 in Rain Heavy Rain
12:37 PM 71.6 °F 69.8 °F 94% 29.97 in 2.0 mi NNW 5.8 mph - 0.42 in Rain Light Rain
12:44 PM 73.4 °F 69.8 °F 88% 29.96 in 10.0 mi NW 4.6 mph - 0.42 in   Overcast
12:53 PM 73.0 °F 70.0 °F 90% 29.98 in 10.0 mi NW 4.6 mph - 0.42 in   Overcast
1:51 PM 73.4 °F 69.8 °F 88% 29.95 in 10.0 mi WNW 5.8 mph - N/A   Overcast
1:53 PM 73.9 °F 70.0 °F 87% 29.96 in 10.0 mi WNW 5.8 mph - N/A   Overcast
2:00 PM 73.4 °F 69.8 °F 88% 29.95 in 10.0 mi WNW 5.8 mph - N/A   Overcast
2:43 PM 73.4 °F 68.0 °F 83% 29.95 in 10.0 mi NW 5.8 mph - N/A   Overcast
2:53 PM 73.9 °F 69.1 °F 85% 29.95 in 10.0 mi WNW 4.6 mph - N/A   Overcast
3:44 PM 75.2 °F 68.0 °F 78% 29.95 in 10.0 mi WNW 6.9 mph - N/A   Overcast
3:53 PM 75.0 °F 68.0 °F 79% 29.95 in 10.0 mi NW 3.5 mph - N/A   Mostly Cloudy
4:17 PM 73.4 °F 66.2 °F 78% 29.94 in 10.0 mi NE 8.1 mph - N/A   Overcast
4:53 PM 70.0 °F 66.0 °F 87% 29.96 in 10.0 mi ENE 11.5 mph - N/A   Scattered Clouds
5:44 PM 69.8 °F 64.4 °F 83% 29.94 in 10.0 mi ENE 9.2 mph - N/A   Mostly Cloudy
5:53 PM 69.1 °F 64.9 °F 87% 29.95 in 10.0 mi ENE 9.2 mph - N/A   Mostly Cloudy
6:32 PM 68.0 °F 64.4 °F 88% 29.94 in 10.0 mi ENE 6.9 mph - N/A   Scattered Clouds
6:53 PM 66.9 °F 64.0 °F 90% 29.96 in 10.0 mi East 4.6 mph - N/A   Clear
7:53 PM 66.9 °F 64.0 °F 90% 29.99 in 10.0 mi Calm Calm - N/A   Clear
8:53 PM 66.0 °F 64.0 °F 93% 29.99 in 10.0 mi East 3.5 mph - N/A   Clear
9:53 PM 66.0 °F 64.0 °F 93% 29.99 in 10.0 mi NE 4.6 mph - N/A   Clear
10:53 PM 66.0 °F 64.0 °F 93% 29.96 in 10.0 mi East 6.9 mph - N/A   Clear
11:42 PM 66.2 °F 64.4 °F 94% 29.96 in 10.0 mi East 3.5 mph - N/A   Mostly Cloudy
11:53 PM 64.9 °F 64.0 °F 97% 29.97 in 10.0 mi Calm Calm - N/A   Mostly Cloudy